SBW631 EFHK-EFOU

Flight info

Callsign SBW631
Flight time 0h 51m
Altitude 34000
Route TEVRU Y75 SUVIB
Aircraft A320/M-SDE3FGHIRWY/LB1

Departure

Time 2026-04-26 13:24
Airport Helsinki Vantaa Airport (EFHK)

Arrival

Time 2026-04-26 14:15
Airport Oulu Airport (EFOU)
Time Latitude Longitude Altitude Speed Heading
2026-04-26 13:00 60.31966 24.96740 190 ft 0 kts 174°
2026-04-26 13:13 60.31973 24.96739 190 ft 2 kts 174°
2026-04-26 13:13 60.31988 24.96736 190 ft 2 kts 174°
2026-04-26 13:13 60.31998 24.96735 190 ft 2 kts 169°
2026-04-26 13:14 60.32011 24.96719 190 ft 2 kts 127°
2026-04-26 13:14 60.32017 24.96690 190 ft 2 kts 92°
2026-04-26 13:14 60.32014 24.96660 190 ft 2 kts 58°
2026-04-26 13:14 60.32009 24.96649 190 ft 1 kts 42°
2026-04-26 13:15 60.32005 24.96641 190 ft 0 kts 45°
2026-04-26 13:15 60.32001 24.96633 190 ft 1 kts 45°
2026-04-26 13:15 60.31996 24.96624 190 ft 0 kts 45°
2026-04-26 13:15 60.31994 24.96620 190 ft 0 kts 45°
2026-04-26 13:18 60.32034 24.96696 189 ft 6 kts 44°
2026-04-26 13:18 60.32063 24.96761 190 ft 6 kts 46°
2026-04-26 13:18 60.32120 24.96887 189 ft 5 kts 46°
2026-04-26 13:19 60.32144 24.96951 190 ft 5 kts 64°
2026-04-26 13:19 60.32129 24.97030 189 ft 8 kts 145°
2026-04-26 13:19 60.32073 24.97090 190 ft 10 kts 153°
2026-04-26 13:19 60.31999 24.97167 190 ft 12 kts 153°
2026-04-26 13:20 60.31914 24.97255 190 ft 14 kts 153°
2026-04-26 13:20 60.31824 24.97350 190 ft 15 kts 152°
2026-04-26 13:20 60.31728 24.97450 190 ft 16 kts 153°
2026-04-26 13:20 60.31624 24.97554 190 ft 16 kts 153°
2026-04-26 13:21 60.31515 24.97665 190 ft 17 kts 152°
2026-04-26 13:21 60.31445 24.97738 190 ft 15 kts 153°
2026-04-26 13:21 60.31315 24.97873 190 ft 16 kts 153°
2026-04-26 13:21 60.31211 24.97979 190 ft 17 kts 153°
2026-04-26 13:22 60.31101 24.98093 190 ft 18 kts 153°
2026-04-26 13:22 60.31055 24.98139 190 ft 1 kts 154°
2026-04-26 13:22 60.31036 24.98156 190 ft 4 kts 155°
2026-04-26 13:22 60.30997 24.98194 190 ft 8 kts 148°
2026-04-26 13:23 60.30976 24.98312 190 ft 10 kts 73°
2026-04-26 13:23 60.31010 24.98444 190 ft 10 kts 54°
2026-04-26 13:23 60.31060 24.98470 190 ft 7 kts 334°
2026-04-26 13:23 60.31139 24.98389 190 ft 33 kts 332°
2026-04-26 13:24 60.31552 24.97959 190 ft 99 kts 334°
2026-04-26 13:24 60.32348 24.97147 224 ft 149 kts 332°
2026-04-26 13:24 60.33239 24.96220 879 ft 147 kts 333°
2026-04-26 13:24 60.34153 24.95264 1554 ft 152 kts 334°
2026-04-26 13:25 60.35094 24.94310 2299 ft 150 kts 336°
2026-04-26 13:25 60.36032 24.93437 2897 ft 151 kts 339°
2026-04-26 13:25 60.36993 24.92650 3490 ft 152 kts 341°
2026-04-26 13:25 60.38017 24.91833 3872 ft 169 kts 340°
2026-04-26 13:26 60.39176 24.90878 4179 ft 191 kts 340°
2026-04-26 13:26 60.40461 24.89768 4646 ft 208 kts 339°
2026-04-26 13:26 60.41826 24.88566 5212 ft 220 kts 339°
2026-04-26 13:26 60.43272 24.87295 5857 ft 228 kts 339°
2026-04-26 13:27 60.44743 24.86080 6549 ft 233 kts 346°
2026-04-26 13:27 60.46363 24.85694 7374 ft 235 kts 357°
2026-04-26 13:27 60.48009 24.85628 8176 ft 239 kts 358°
2026-04-26 13:27 60.49656 24.85560 8967 ft 243 kts 358°
2026-04-26 13:28 60.51369 24.85459 9770 ft 247 kts 358°
2026-04-26 13:28 60.53110 24.85330 10395 ft 257 kts 358°
2026-04-26 13:28 60.54955 24.85175 10767 ft 274 kts 357°
2026-04-26 13:28 60.56909 24.84998 11099 ft 292 kts 357°
2026-04-26 13:29 60.58991 24.84799 11495 ft 306 kts 357°
2026-04-26 13:29 60.60425 24.84660 11910 ft 310 kts 357°
2026-04-26 13:29 60.63337 24.84371 12801 ft 316 kts 357°
2026-04-26 13:29 60.65552 24.84151 13411 ft 322 kts 357°
2026-04-26 13:30 60.67829 24.83921 13999 ft 327 kts 357°
2026-04-26 13:30 60.70104 24.83692 14593 ft 332 kts 357°
2026-04-26 13:30 60.72459 24.83453 15196 ft 336 kts 357°
2026-04-26 13:30 60.74775 24.83218 15780 ft 340 kts 357°
2026-04-26 13:31 60.77137 24.82977 16363 ft 344 kts 357°
2026-04-26 13:31 60.79561 24.82741 16907 ft 348 kts 358°
2026-04-26 13:31 60.82007 24.82729 17450 ft 352 kts
2026-04-26 13:31 60.84459 24.83038 17997 ft 355 kts
2026-04-26 13:32 60.86907 24.83568 18506 ft 359 kts
2026-04-26 13:32 60.89407 24.84161 19004 ft 363 kts
2026-04-26 13:32 60.91934 24.84767 19499 ft 366 kts
2026-04-26 13:32 60.94459 24.85372 19980 ft 369 kts
2026-04-26 13:33 60.97036 24.85987 20465 ft 372 kts
2026-04-26 13:33 60.99611 24.86602 20937 ft 375 kts
2026-04-26 13:33 61.02269 24.87236 21386 ft 378 kts
2026-04-26 13:33 61.04898 24.87863 21843 ft 381 kts
2026-04-26 13:34 61.07547 24.88496 22294 ft 383 kts
2026-04-26 13:34 61.10136 24.89116 22715 ft 386 kts
2026-04-26 13:34 61.12830 24.89761 23138 ft 388 kts
2026-04-26 13:34 61.14621 24.90190 23413 ft 390 kts
2026-04-26 13:35 61.18249 24.91062 23945 ft 394 kts
2026-04-26 13:35 61.20977 24.91718 24320 ft 397 kts
2026-04-26 13:35 61.23722 24.92380 24692 ft 400 kts
2026-04-26 13:35 61.26493 24.93050 25021 ft 402 kts
2026-04-26 13:36 61.29258 24.93721 25371 ft 403 kts
2026-04-26 13:36 61.32023 24.94392 25701 ft 404 kts
2026-04-26 13:36 61.34838 24.95076 26018 ft 406 kts
2026-04-26 13:36 61.37626 24.95754 26309 ft 407 kts
2026-04-26 13:37 61.40422 24.96436 26592 ft 409 kts
2026-04-26 13:37 61.43241 24.97123 26859 ft 411 kts
2026-04-26 13:37 61.46085 24.97818 27114 ft 413 kts
2026-04-26 13:37 61.48919 24.98515 27383 ft 414 kts
2026-04-26 13:38 61.51773 24.99215 27645 ft 415 kts
2026-04-26 13:38 61.54654 24.99926 27891 ft 416 kts
2026-04-26 13:38 61.57538 25.00637 28144 ft 417 kts
2026-04-26 13:38 61.60396 25.01270 28370 ft 419 kts
2026-04-26 13:39 61.63306 25.01619 28601 ft 419 kts
2026-04-26 13:39 61.66220 25.01775 28821 ft 421 kts 360°
2026-04-26 13:39 61.69120 25.01877 29025 ft 422 kts 360°
2026-04-26 13:39 61.72082 25.01975 29232 ft 423 kts 360°
2026-04-26 13:40 61.75023 25.02077 29441 ft 424 kts 360°
2026-04-26 13:40 61.77978 25.02182 29639 ft 425 kts 360°
2026-04-26 13:40 61.80907 25.02291 29821 ft 426 kts 360°
2026-04-26 13:40 61.83887 25.02401 29988 ft 427 kts 360°
2026-04-26 13:41 61.86848 25.02514 30162 ft 428 kts 360°
2026-04-26 13:41 61.89780 25.02626 30372 ft 427 kts 360°
2026-04-26 13:41 61.92764 25.02741 30583 ft 426 kts 359°
2026-04-26 13:41 61.95695 25.02852 30761 ft 426 kts 360°
2026-04-26 13:42 61.98645 25.02965 30945 ft 426 kts 360°
2026-04-26 13:42 62.01611 25.03079 31144 ft 426 kts 360°
2026-04-26 13:42 62.04568 25.03192 31337 ft 425 kts 359°
2026-04-26 13:42 62.07508 25.03305 31503 ft 426 kts 360°
2026-04-26 13:43 62.10440 25.03417 31668 ft 426 kts 359°
2026-04-26 13:43 62.13389 25.03532 31861 ft 426 kts 360°
2026-04-26 13:43 62.16363 25.03648 32054 ft 426 kts 359°
2026-04-26 13:43 62.19275 25.03759 32232 ft 426 kts 359°
2026-04-26 13:44 62.22228 25.03872 32415 ft 426 kts 359°
2026-04-26 13:44 62.25191 25.03985 32590 ft 425 kts 359°
2026-04-26 13:44 62.28138 25.04098 32760 ft 425 kts 359°
2026-04-26 13:44 62.31057 25.04211 32936 ft 425 kts 359°
2026-04-26 13:45 62.33999 25.04325 33102 ft 425 kts 359°
2026-04-26 13:45 62.36969 25.04439 33281 ft 425 kts 359°
2026-04-26 13:45 62.39890 25.04552 33472 ft 425 kts 359°
2026-04-26 13:45 62.42874 25.04667 33656 ft 425 kts 360°
2026-04-26 13:46 62.45781 25.04780 33732 ft 426 kts 359°
2026-04-26 13:46 62.51687 25.05010 33736 ft 426 kts 360°
2026-04-26 13:47 62.57586 25.05242 33739 ft 426 kts 360°
2026-04-26 13:47 62.63524 25.05476 33744 ft 426 kts 360°
2026-04-26 13:48 62.69392 25.05706 33748 ft 426 kts 360°
2026-04-26 13:48 62.75305 25.05929 33751 ft 426 kts 359°
2026-04-26 13:49 62.81213 25.06158 33750 ft 426 kts 360°
2026-04-26 13:49 62.87093 25.06394 33753 ft 426 kts 360°
2026-04-26 13:50 62.93000 25.06631 33749 ft 427 kts 360°
2026-04-26 13:50 62.98909 25.06869 33753 ft 427 kts 360°
2026-04-26 13:51 63.04847 25.07109 33751 ft 427 kts 360°
2026-04-26 13:51 63.10759 25.07350 33754 ft 427 kts 360°
2026-04-26 13:52 63.16686 25.07591 33755 ft 428 kts 360°
2026-04-26 13:52 63.22595 25.07833 33757 ft 427 kts 360°
2026-04-26 13:53 63.28516 25.08077 33764 ft 426 kts 360°
2026-04-26 13:53 63.34295 25.08316 33309 ft 413 kts 360°
2026-04-26 13:53 63.37142 25.08430 32771 ft 414 kts 360°
2026-04-26 13:54 63.40028 25.08545 32198 ft 416 kts 360°
2026-04-26 13:54 63.42900 25.08660 31653 ft 417 kts 360°
2026-04-26 13:54 63.45771 25.08775 31114 ft 417 kts 360°
2026-04-26 13:55 63.51542 25.09011 30020 ft 417 kts
2026-04-26 13:55 63.53457 25.09090 29647 ft 418 kts
2026-04-26 13:55 63.60200 25.09369 28261 ft 419 kts
2026-04-26 13:56 63.63093 25.09489 27805 ft 414 kts
2026-04-26 13:56 63.65937 25.09608 27331 ft 410 kts
2026-04-26 13:56 63.68755 25.09725 26832 ft 407 kts
2026-04-26 13:56 63.71549 25.09841 26333 ft 404 kts
2026-04-26 13:57 63.74361 25.09960 25815 ft 401 kts
2026-04-26 13:57 63.77117 25.10075 25301 ft 397 kts
2026-04-26 13:57 63.79850 25.10189 24776 ft 393 kts
2026-04-26 13:57 63.82549 25.10302 24153 ft 391 kts
2026-04-26 13:58 63.85238 25.10413 23545 ft 387 kts
2026-04-26 13:58 63.87902 25.10524 22961 ft 384 kts
2026-04-26 13:58 63.90550 25.10635 22370 ft 380 kts
2026-04-26 13:58 63.93140 25.10743 21807 ft 377 kts
2026-04-26 13:59 63.95737 25.10854 21238 ft 373 kts
2026-04-26 13:59 63.98315 25.10963 20646 ft 371 kts
2026-04-26 13:59 64.00883 25.11072 20074 ft 368 kts
2026-04-26 14:00 64.08388 25.11389 18424 ft 358 kts
2026-04-26 14:00 64.10874 25.11493 17905 ft 354 kts
2026-04-26 14:00 64.12486 25.11561 17583 ft 352 kts
2026-04-26 14:01 64.15727 25.11700 16918 ft 347 kts
2026-04-26 14:01 64.18119 25.11801 16450 ft 343 kts
2026-04-26 14:01 64.20469 25.11901 15974 ft 340 kts
2026-04-26 14:01 64.22823 25.12002 15479 ft 337 kts
2026-04-26 14:02 64.25119 25.12102 14984 ft 334 kts
2026-04-26 14:02 64.27422 25.12203 14494 ft 331 kts
2026-04-26 14:02 64.29707 25.12303 14013 ft 327 kts
2026-04-26 14:02 64.31960 25.12402 13501 ft 325 kts
2026-04-26 14:03 64.34186 25.12499 12991 ft 323 kts
2026-04-26 14:03 64.36417 25.12597 12468 ft 320 kts
2026-04-26 14:03 64.38640 25.12693 11948 ft 318 kts
2026-04-26 14:03 64.40839 25.12790 11443 ft 315 kts
2026-04-26 14:04 64.42944 25.13412 11192 ft 302 kts 16°
2026-04-26 14:04 64.44836 25.15199 10983 ft 291 kts 29°
2026-04-26 14:04 64.46547 25.17553 10779 ft 280 kts 31°
2026-04-26 14:04 64.48170 25.19876 10581 ft 271 kts 31°
2026-04-26 14:05 64.49739 25.22134 10366 ft 263 kts 31°
2026-04-26 14:05 64.51279 25.24345 10004 ft 260 kts 31°
2026-04-26 14:05 64.52803 25.26530 9624 ft 259 kts 31°
2026-04-26 14:05 64.54332 25.28721 9041 ft 258 kts 31°
2026-04-26 14:06 64.55844 25.30892 8260 ft 260 kts 31°
2026-04-26 14:06 64.57364 25.33069 7460 ft 259 kts 31°
2026-04-26 14:06 64.58877 25.35241 6670 ft 257 kts 31°
2026-04-26 14:06 64.60387 25.37413 5876 ft 256 kts 30°
2026-04-26 14:07 64.61890 25.39575 5096 ft 254 kts 30°
2026-04-26 14:07 64.63357 25.41689 4324 ft 252 kts 30°
2026-04-26 14:07 64.64841 25.43828 3532 ft 251 kts 30°
2026-04-26 14:07 64.66304 25.45942 2789 ft 247 kts 29°
2026-04-26 14:08 64.67727 25.47998 2347 ft 233 kts 29°
2026-04-26 14:08 64.69123 25.50017 2258 ft 232 kts 29°
2026-04-26 14:08 64.70503 25.52011 2253 ft 232 kts 29°
2026-04-26 14:08 64.71885 25.54014 2256 ft 232 kts 29°
2026-04-26 14:09 64.73256 25.56003 2246 ft 228 kts 29°
2026-04-26 14:09 64.74609 25.57974 2248 ft 223 kts 29°
2026-04-26 14:09 64.75933 25.59899 2250 ft 223 kts 29°
2026-04-26 14:09 64.77266 25.61832 2252 ft 222 kts 28°
2026-04-26 14:10 64.78593 25.63721 2255 ft 222 kts 28°
2026-04-26 14:10 64.79921 25.65608 2254 ft 220 kts 29°
2026-04-26 14:10 64.81184 25.67409 2244 ft 206 kts 29°
2026-04-26 14:10 64.82389 25.69073 2235 ft 191 kts 22°
2026-04-26 14:11 64.84698 25.67764 2235 ft 182 kts 313°
2026-04-26 14:11 64.85346 25.65314 2259 ft 172 kts 307°
2026-04-26 14:11 64.85958 25.62909 2348 ft 169 kts 307°
2026-04-26 14:12 64.86536 25.60650 2270 ft 153 kts 308°
2026-04-26 14:12 64.87080 25.58541 2243 ft 151 kts 309°
2026-04-26 14:12 64.87627 25.56445 2109 ft 151 kts 308°
2026-04-26 14:12 64.88178 25.54304 1866 ft 150 kts 308°
2026-04-26 14:13 64.89262 25.50097 1404 ft 149 kts 307°
2026-04-26 14:13 64.89796 25.48023 1178 ft 146 kts 307°
2026-04-26 14:13 64.90304 25.46029 921 ft 134 kts 307°
2026-04-26 14:14 64.90758 25.44239 716 ft 121 kts 307°
2026-04-26 14:14 64.91191 25.42544 593 ft 121 kts 306°
2026-04-26 14:14 64.91626 25.40819 507 ft 121 kts 306°
2026-04-26 14:14 64.92055 25.39133 269 ft 120 kts 306°
2026-04-26 14:15 64.92497 25.37449 83 ft 120 kts 305°
2026-04-26 14:15 64.92898 25.35889 41 ft 95 kts 302°
2026-04-26 14:15 64.93130 25.34977 44 ft 47 kts 302°
2026-04-26 14:15 64.93276 25.34434 44 ft 32 kts 303°
2026-04-26 14:16 64.93378 25.34108 45 ft 23 kts 325°
2026-04-26 14:16 64.93462 25.34037 44 ft 9 kts 34°
2026-04-26 14:16 64.93513 25.34135 44 ft 9 kts 55°
2026-04-26 14:16 64.93512 25.34193 44 ft 4 kts 112°
2026-04-26 14:17 64.93491 25.34301 42 ft 9 kts 113°
2026-04-26 14:17 64.93454 25.34447 42 ft 10 kts 122°
2026-04-26 14:17 64.93413 25.34605 41 ft 12 kts 121°
2026-04-26 14:17 64.93364 25.34800 41 ft 14 kts 120°
2026-04-26 14:18 64.93313 25.35008 41 ft 14 kts 119°
2026-04-26 14:18 64.93258 25.35228 41 ft 15 kts 121°
2026-04-26 14:18 64.93198 25.35457 41 ft 16 kts 121°
2026-04-26 14:18 64.93137 25.35700 41 ft 17 kts 121°
2026-04-26 14:19 64.93074 25.35948 41 ft 17 kts 121°
2026-04-26 14:19 64.93009 25.36203 41 ft 18 kts 121°
2026-04-26 14:19 64.92947 25.36450 41 ft 14 kts 120°
2026-04-26 14:19 64.92899 25.36651 41 ft 13 kts 119°
2026-04-26 14:20 64.92857 25.36825 41 ft 7 kts 118°
2026-04-26 14:20 64.92833 25.36915 41 ft 6 kts 125°
2026-04-26 14:20 64.92802 25.37021 41 ft 8 kts 124°
2026-04-26 14:20 64.92765 25.37148 41 ft 3 kts 122°
2026-04-26 14:21 64.92752 25.37195 41 ft 4 kts 122°
2026-04-26 14:21 64.92744 25.37224 41 ft 2 kts 121°
2026-04-26 14:21 64.92742 25.37234 41 ft 0 kts 121°
2026-04-26 14:21 64.92740 25.37243 41 ft 0 kts 121°
2026-04-26 14:23 64.92741 25.37254 41 ft 2 kts 76°
2026-04-26 14:23 64.92767 25.37306 41 ft 6 kts 33°
2026-04-26 14:23 64.92799 25.37353 41 ft 0 kts 30°